Home   Weather   Kazan   Past weeks

Flag for Russia Past Weather in Kazan, Russia — Yesterday and Last 2 Weeks

Now
48 °F

Low clouds.


Feels Like: 43 °F
Forecast: 49 / 55 °F
Wind: 13 mph from Northeast

Location: Kazan'

Current Time: Sep 28, 2016 at 3:08:23 AM

Latest Report: Sep 28, 2016 at 2:30 AM


Visibility: N/A

Pressure: 29.92 "Hg

Humidity: 87%

Dew Point: 45 °F

Location of KazanLocation

Past Weather in Kazan — Graph

°F

Kazan Temperature Yesterday

Maximum temperature yesterday: 54 °F (at 12:00 PM)
Minimum temperature yesterday: 50 °F (at 2:30 AM)
Average temperature yesterday: 51 °F

High & Low Weather Summary for the Past Weeks

 TemperatureHumidityPressure
High70 °F (Sep 25, 2:00 PM)100% (Sep 14, 4:30 AM)30.18 "Hg (Sep 14, 4:30 AM)
Low43 °F (Sep 17, 10:30 PM)43% (Sep 25, 2:00 PM)29.42 "Hg (Sep 13, 7:30 AM)
Average51 °F84%29.81 "Hg
* Reported Sep 13 2:00 AM — Sep 28 2:00 AM, Kazan, Weather by CustomWeather, © 2016

Note: Actual official high and low records may vary slightly from our data, if they occured in-between our weather recording intervals... More about our weather records

Advertising

Kazan Weather History for the Previous 24 Hours

Scroll right to see more
 ConditionsComfort  
Time TempWeatherWind HumidityBarometerVisibility
2:00 AM
Wed, Sep 28
48 °FOvercast.10 mph87%29.92 "HgN/A
1:30 AM48 °FOvercast.13 mph87%29.92 "HgN/A
1:00 AM50 °FOvercast.13 mph88%29.92 "HgN/A
12:30 AM50 °FOvercast.10 mph88%29.95 "HgN/A
12:00 AM50 °FOvercast.10 mph88%29.92 "HgN/A
11:30 PM
Tue, Sep 27
50 °FOvercast.10 mph88%29.95 "HgN/A
11:00 PM50 °FOvercast.10 mph88%29.95 "HgN/A
10:30 PM50 °FOvercast.13 mph88%29.95 "HgN/A
10:00 PM50 °FOvercast.10 mph88%29.95 "HgN/A
9:30 PM50 °FLow clouds.10 mph88%29.95 "HgN/A
9:00 PM50 °FLow clouds.10 mph88%29.95 "HgN/A
8:30 PM50 °FLow clouds.10 mph88%29.98 "HgN/A
8:00 PM50 °FLow clouds.10 mph88%29.98 "HgN/A
7:30 PM50 °FLow clouds.10 mph88%29.98 "HgN/A
7:00 PM50 °FLow clouds.10 mph88%29.98 "HgN/A
6:30 PM50 °FOvercast.13 mph88%29.98 "HgN/A
6:00 PM50 °FOvercast.10 mph88%29.98 "HgN/A
5:30 PM50 °FLow clouds.10 mph94%29.98 "HgN/A
5:00 PM52 °FPartly sunny.10 mph88%29.98 "HgN/A
4:30 PM52 °FPartly sunny.10 mph88%29.98 "HgN/A
4:00 PM52 °FPartly sunny.10 mph88%29.98 "HgN/A
3:30 PM52 °FOvercast.8 mph94%29.95 "HgN/A
3:00 PM54 °FOvercast.8 mph88%29.98 "HgN/A
2:30 PM54 °FOvercast.8 mph88%29.98 "HgN/A
2:00 PM54 °FOvercast.8 mph88%29.95 "HgN/A
1:30 PM54 °FLow clouds.8 mph88%29.95 "HgN/A
1:00 PM54 °FOvercast.6 mph88%29.95 "HgN/A
12:30 PM54 °FOvercast.6 mph88%29.95 "HgN/A
12:00 PM54 °FOvercast.6 mph82%29.95 "HgN/A
11:30 AM52 °FOvercast.6 mph88%29.95 "HgN/A
11:00 AM52 °FLow clouds.6 mph94%29.95 "HgN/A
10:30 AM52 °FOvercast.8 mph94%29.95 "Hg6 mi
10:00 AM52 °FLow clouds.8 mph88%29.95 "HgN/A
9:30 AM52 °FLow clouds.6 mph94%29.95 "HgN/A
9:00 AM52 °FLow clouds.6 mph94%29.95 "HgN/A
8:30 AM52 °FLow clouds.6 mph94%29.95 "HgN/A
8:00 AM52 °FLow clouds.8 mph94%29.95 "Hg6 mi
7:30 AM52 °FPartly sunny.8 mph94%29.95 "Hg6 mi
7:00 AM50 °FFog.8 mph100%29.95 "Hg3 mi
6:30 AM50 °FFog.8 mph100%29.95 "Hg2 mi
6:00 AM50 °FCool.8 mph100%29.95 "Hg1 mi
5:30 AM50 °FCool.8 mph100%29.95 "Hg1 mi
5:00 AM52 °FCool.8 mph94%29.95 "Hg1 mi
4:30 AM52 °FFog.3 mph94%29.95 "Hg1 mi
4:00 AM52 °FFog.3 mph94%29.95 "Hg1 mi
3:30 AM50 °FFog.1 mph100%29.95 "Hg2 mi
3:00 AM50 °FFog.No wind100%29.95 "Hg2 mi
Weather by CustomWeather, © 2016

See weather overviewHow to use our weather pages